TIANWANG 1A (TW-1A)
1 40928U 15051D   20010.17111801  .00002670  00000-0  64909-4 0  9995
2 40928  97.1267  41.8142 0012156  53.9681  19.9274 15.41785004240827
LAPAN A2
1 40931U 15052B   20008.73385127  .00000640  00000-0  00000+0 0  9995
2 40931   5.9917  41.4791 0013162 160.0202 200.3725 14.76621920231463
LQSAT
1 40958U 15057A   20009.97077662  .00000011  00000-0  92841-5 0  9990
2 40958  97.8757  78.3559 0016931 304.8416  55.1199 14.73103361229028
CHUBUSAT 2
1 41338U 16012B   20010.15570986  .00000314  00000-0  17675-4 0  9991
2 41338  31.0032 278.9531 0013726 337.8563  22.1478 15.00229413213792
CHUBUSAT 3
1 41339U 16012C   20010.16807477  .00000297  00000-0  16336-4 0  9994
2 41339  31.0128 276.7069 0013715 345.3971  14.6267 15.00398993213798
OUFTI-1
1 41458U 16025C   20009.22350423  .00001329  00000-0  70528-4 0  9999
2 41458  98.0994 111.4990 0165466  29.6126 331.4344 15.06367611203353
E-STAR-2
1 41459U 16025D   20010.22118607  .00001498  00000-0  79611-4 0  9997
2 41459  98.0987 112.0832 0166289  27.9010 333.1040 15.05971077203476
AAUSAT 4
1 41460U 16025E   20010.19301627  .00001704  00000-0  87622-4 0  9992
2 41460  98.0959 113.8556 0156204  18.6577 342.0288 15.08074662203638
NUSAT 1
1 41557U 16033B   20010.16305387  .00001168  00000-0  45924-4 0  9995
2 41557  97.4107 101.4428 0012136 294.3699  65.6273 15.27651483201450
BEESAT 4
1 41619U 16040W   20010.11648744  .00001237  00000-0  54522-4 0  9995
2 41619  97.3428  73.2621 0011837  29.1456 331.0439 15.23598994185130
PRATHAM
1 41783U 16059A   20009.16290237  .00000057  00000-0  20098-4 0  9990
2 41783  98.0414  68.9294 0034881 100.6914 259.8218 14.63030761175441
ALSAT 1N
1 41789U 16059G   20010.20667122  .00000021  00000-0  12967-4 0  9991
2 41789  98.0440  72.3993 0029671  86.3726 274.0872 14.64288482175725
NAYIF 1
1 42017U 17008BX  20010.16962004  .00001418  00000-0  57865-4 0  9990
2 42017  97.3809  79.9308 0006923 151.8764 208.2850 15.26045512161251
MAX VALIER SAT
1 42778U 17036P   20009.82877826 +.00000845 +00000-0 +39588-4 0  9998
2 42778 097.3288 067.6944 0011332 217.3524 142.6926 15.22341357141444
